STARLINK-34005, 63935

Orbit data source: Space-Track

STARLINK-34005, 63935 is a payload satellite owned by SpaceX/Seattle (US) in LEO that was launched on Tue, 13 May 2025 UTC via an FALCON 9 launch vehicle from the Air Force Western Test Range (AFWTR). Payload-class satellites include a variety of spacecraft equipped with specific instruments for various scientific and technological missions. These include communications satellites like Starlink; space stations such as the ISS; scientific satellites like the Hubble; Earth observation satellites from companies like Planet Labs, Umbra, and HawkEye 360; GPS; miniature CubeSats for education and research; and military/defense satellites.

Loading next visibility...
Identifier
63935, 2025-098K
Orbit
LEO
Country
Flag of USUS
Related business
Manufacturer
SpaceX/Seattle
Mission
Operational Commercial Communications
Bus & Motor
STARLINK V2MO, Unknown motor
Mass
575 kg wet, ~530 kg dry
Launch date (UTC)
2025-05-13 (7 months ago)
Launch vehicle
FALCON 9
Launch site
Air Force Western Test Range (AFWTR)
Object type
Payload
Rocket body
Debris
Shape & HBR
Box + 2 Pan, 17.7 m
Radar Cross Section
36.964 m², Large (>1 m²)

Expand to show TLE details & history
Last TLE update: 19 hours ago

TLE from 19 hours ago
0 STARLINK-34005
1 63935U 25098K   25348.80774084  .00001863  00000-0  16387-3 0  9996
2 63935  70.0004 128.6411 0003309 269.6277  90.4503 14.98331508 33847
Epoch: 2025-12-14T19:23Z
TLE epoch observation values (Epoch: 2025-12-14T19:23:08.808Z)
Latitude
-0.00002°
Longitude
114.13904°
Altitude
574.494 km
Speed
7.574 km/s
True Right ascension
08h 34m 33s
True Declination
0° 00' 00"
Sunlit
Object was in full shadow at epoch
Visualization orbit readout
Latitude
Unknown
Longitude
Unknown
Altitude
Unknown
Speed
Unknown
Apparent Right ascension
Unknown
Apparent Declination
Unknown
Sunlit
N/A
Visualization observer readout
Local Sidereal Time
13:24:37
Azimuth
Unknown
Elevation
Unknown
Doppler factor
Unknown
Orbital elements
Apogee altitude
572.299 km
Perigee altitude
567.7 km
Semi-major axis
6,948.136 km
Eccentricity
0.00033
Inclination
70.0004°
RAAN
128.6411°
Arg. of periapsis
269.6277°
True anomaly
90.48822°
Mean anomaly
90.4503°
Eccentric anomaly
90.46926°
Mean motion
3.74749 °/min
Orbital period
96.06 mins
BSTAR
0.00016387
Loading maneuver chart data...
Computing Atmospheric mass density...
Loading historical data...
Loading historical data...
Loading historical data...
Loading historical data...
Loading historical data...
Loading historical data...
Loading historical data...

Documentation

Showing up to 5 results
|